www.pogodaiklimat.ru

Погода и климат >> Архив погоды >> Доминиканская Республика >> La Romana Int Airport


ПОГОДА в La Romana Int Airport

  • Прогноз погоды в La Romana Int Airport
  • Монитор погоды в La Romana Int Airport
  • Климат города

АРХИВ ПОГОДЫ в La Romana Int Airport

Время (UTC), дата Ветер
(напр.,м/с)
 
Видим.   Явления Облачность Т
(С)
Тd
(С)
f
(%)
Тe
(С)
Тes
(С)
Комфортность P
(гПа)
Po
(гПа)
Тmin
(С)
Tmax
(С)
R
(мм)
R24
(мм)
S
(см)
21 10.10 штиль 0 16 км 9/5 540 м
[Cb cap As op]
+28.2 +25.8 87 +42 +43 опасность
перегрева
1012.0 1012.0
03 11.10 штиль 0 16 км 9/5 480 м
[Cb cap As op]
+23.4 +23.1 98 +33 +33 очень
душно
1014.5 1015.0
12 11.10 штиль 0 16 км 8/3 480 м
[Cu med, cong Ac trans]
+24.6 +24.0 96 +34 +35 очень
душно
1014.0 1014.0 +21.0 +31.5
15 11.10 В 3 16 км 8/4 600 м
[Cu med, cong Ac trans Ci fib]
+31.4 +25.8 72 +46 +51 опасность
перегрева
1014.1 1014.0
18 11.10 В 3 16 км 8/5 660 м
[Cu med, cong Ac trans]
+30.0 +24.0 70 +41 +45 опасность
перегрева
1012.3 1012.0
00 12.10 штиль 0 16 км 8/5 480 м
[Cb cap Ac trans]
+23.5 +22.6 95 +31 +31 очень
душно
1012.8 1013.0
03 12.10 штиль 0 16 км 8/5 540 м
[Sc Ac trans]
+23.1 +22.8 98 +32 +32 очень
душно
1014.0 1014.0
12 12.10 штиль 0 16 км 8/4 540 м
[Cu Sc Ac trans]
+23.7 +23.1 96 +31 +32 очень
душно
1014.2 1014.0
15 12.10 ЮВ 2 16 км 8/3 600 м
[Cu med, cong Ac trans Ci]
+28.0 +24.1 79 +39 +45 очень
душно
1014.9 1015.0
18 12.10 Ю 2 8000 м осадки на расстоянии 9/6 540 м
[Cb cap Ac trans Cs]
+31.2 +27.9 83 +51 +55 опасность
перегрева
1012.7 1013.0
21 12.10 Ю 3 8000 м осадки на расстоянии 8/5 540 м
[Cb cap Ac trans Ci]
+27.3 +24.2 83 +38 +39 очень
душно
1012.6 1013.0
00 13.10 штиль 0 16 км 9/5 540 м
[Cu med, cong Ci]
+23.3 +22.3 94 +32 +32 очень
душно
1013.2 1013.0
03 13.10 штиль 0 16 км 9/6 480 м
[Cb cap Cs]
+23.0 +22.3 96 +31 +31 очень
душно
1014.7 1015.0
12 13.10 СВ 2 8000 м осадки на расстоянии {дождь} 6/5 300 м
[Cb cap Ci]
+24.2 +23.9 98 +33 +34 очень
душно
1014.2 1014.0 0.0
15 13.10 ЮВ 5 8000 м осадки на расстоянии {дождь} 9/8 480 м
[Cb cap As op Cs]
+24.2 +22.9 92 +32 +33 очень
душно
1016.0 1016.0
18 13.10 Ю 3 16 км 9/8 480 м
[Cb cap As op Cs]
+26.6 +23.3 82 +36 +38 очень
душно
1015.0 1015.0 +24.2 +28.2
21 13.10 Ю 4 8000 м осадки на расстоянии {дождь} 10/9 420 м
[Cb cap As op]
+24.0 +23.7 98 +33 +33 очень
душно
1014.6 1015.0 2
00 14.10 штиль 0 16 км {дождь} 8/5 480 м
[Cb cap As op Cs]
+22.6 +22.0 96 +30 +30 очень
душно
1015.4 1015.0 +23.6 +28.2
03 14.10 штиль 0 16 км 6/4 480 м
[Cb cap Cs]
+22.0 +21.7 98 +29 +29 очень
душно
1016.0 1016.0
12 14.10 штиль 0 16 км 8/5 480 м
[Cb cap Ac As]
+24.0 +23.4 96 +32 +33 очень
душно
1015.8 1016.0 +21.4 +28.2
18 14.10 СВ 5 8000 м слабый дождь 10/10 480 м
[Cb cap Ac As]
+22.3 +21.9 98 +30 +30 очень
душно
1016.0 1016.0 +21.4 +27.4 0.8
21 14.10 ЮВ 3 8000 м слабый дождь 9/8 420 м
[Cb cap Ac As Cs]
+24.2 +23.6 96 +33 +33 очень
душно
1014.5 1015.0 3
00 15.10 С 3 16 км {дождь} 8/4 480 м
[Cb cap Ac trans Cs]
+23.5 +22.2 92 +30 +30 очень
душно
1015.4 1015.0 +21.4 +27.4 0.0
03 15.10 штиль 0 16 км 8/6 480 м
[Cb cap Ac As]
+22.4 +22.1 98 +30 +30 очень
душно
1017.5 1018.0
12 15.10 С 2 16 км {дождь} 6/5 300 м
[Cb cap Ac trans Ci fib]
+24.3 +23.2 94 +33 +33 очень
душно
1016.4 1016.0 +21.5 +27.4 0.3
15 15.10 В 5 16 км 8/4 600 м
[Cu med, cong Ci fib]
+29.6 +24.8 75 +42 +46 опасность
перегрева
1017.0 1017.0
18 15.10 В 6 16 км 8/5 600 м
[Cb cap Cs]
+30.0 +25.4 76 +44 +46 опасность
перегрева
1015.0 1015.0 +21.5 +31.5
21 15.10 В 3 16 км 8/5 600 м
[Cb cap Cs]
+28.9 +24.2 76 +40 +41 очень
душно
1014.3 1014.0
00 16.10 штиль 0 16 км 8/5 420 м
[Cb cap Cs]
+25.2 +24.4 95 +35 +35 очень
душно
1015.5 1016.0 +21.5 +31.5
03 16.10 штиль 0 16 км 8/5 420 м
[Cb cap Cs]
+24.3 +24.0 98 +33 +33 очень
душно
1016.8 1017.0
12 16.10 СВ 2 16 км 8/4 480 м
[Cu med, cong Cs]
+24.6 +24.3 98 +34 +35 очень
душно
1016.4 1016.0 +21.8 +31.5
15 16.10 В 5 16 км 8/5 480 м
[Cb cap Cs]
+28.5 +25.2 82 +41 +45 опасность
перегрева
1017.5 1018.0
18 16.10 В 5 16 км 8/5 480 м
[Cb cap Cs]
+29.2 +26.0 83 +44 +47 опасность
перегрева
1015.0 1015.0 +21.8 +32.0
21 16.10 В 4 16 км {дождь} 9/6 420 м
[Cb cap Ac trans Cs]
+26.1 +24.7 92 +37 +37 очень
душно
1013.6 1014.0 1
00 17.10 штиль 0 16 км 9/6 360 м
[Cb cap Ac trans Cs]
+23.6 +23.3 98 +32 +32 очень
душно
1014.5 1015.0 +21.8 +31.0 2
03 17.10 штиль 0 16 км 9/6 360 м
[Cb cap Ac trans Cs]
+23.2 +23.0 99 +32 +32 очень
душно
1015.5 1016.0
12 17.10 СВ 2 16 км 8/4 480 м
[Cu med, cong Cs]
+24.4 +24.3 99 +34 +35 очень
душно
1015.0 1015.0 +23.1 +31.0

 

Местоположение метеостанции La Romana Int Airport (Доминиканская Республика): широта 18.45 долгота -68.92 высота над уровнем моря 94 м.

В архиве по умолчанию представлена погода в La Romana Int Airport за последнюю неделю. Архивные данные за месяц целиком и за предыдущие месяцы, начиная с января 2011 года, Вы можете получить, выбрав интересующий диапазон дат из раскрывающегося списка и нажав кнопку "Ввод!".


*Определитесь, кто Вы:
робот инопланетянин человек

Внимание! Время в таблицах - всемирное. Для получения местного времени необходимо прибавить поправку, которая в La Romana Int Airport равна -4 ч.

Смотрите также архив погоды в соседних городах и на ближайших метеорологических станциях:

Погода в Punta Cana (Доминиканская Республика) (61 км)
Погода в Las Americas (Доминиканская Республика) (78 км)
Погода в Sabana De La Mar (Доминиканская Республика) (82 км)
Погода в Santo Domingo (Доминиканская Республика) (101 км)
Погода в Santiago (Доминиканская Республика) (218 км)
Погода в Puerto Plata (Доминиканская Республика) (224 км)
Погода в Barahona (Доминиканская Республика) (232 км)
Погода в Charlotte Amalie St. Thomas (Виргинские Острова) (418 км)
Погода в Punta de Maisi (Куба) (584 км)
Погода в Juliana Airport (Нидерландские Антилы) (616 км)

Пояснения к столбцам:

Ветер - указаны скорость ветра в м/с - средняя за 10 мин, порывы в срок и между сроками (в фигурных скобках) и направление, откуда дует ветер: С - северный, СВ - северо-восточный, В - восточный, ЮВ - юго-восточный, Ю - южный, ЮЗ - юго-западный, З - западный, СЗ - северо-западный.
Видимость - горизонтальная дальность видимости в метрах или километрах. При видимости от 1 до 10 км при отсутствии осадков обычно наблюдается дымка, при ухудшении видимости до 1 км и менее - туман. В сухую погоду видимость может ухудшаться дымом, пылью или мглою.
Явления - указаны атмосферные явления, наблюдавшиеся в срок или в последний час перед сроком; фигурными скобками обозначены явления, наблюдавшиеся между сроками (за 1-3 часа до срока); квадратными скобками обозначены град или гололедные отложения с указанием их диаметра в мм.
Облачность - указаны через наклонную черту общая и нижняя облачность в баллах и высота нижней границы облаков в метрах; квадратными скобками обозначены формы облаков: Ci - перистые, Cs - перисто-слоистые, Cc - перисто-кучевые, Ac - высококучевые, As - высокослоистые, Sc - слоисто-кучевые, Ns - слоисто-дождевые, Cu - кучевые, Cb - кучево-дождевые. Подробнее классификацию облаков см. в Атласе облаков (PDF).
T - Температура воздуха - температура, измеренная на высоте 2 м над землей.
Td - Температура точки росы - температура, при понижении до которой содержащийся в воздухе водяной пар достигнет насыщения.
f - Относительная влажность воздуха - влажноcть воздуха, измеренная на высоте 2 м над землей.
Te - Эффективная температура - температура, которую ощущает одетый по сезону человек в тени. Характеристика душности погоды. При расчете учитывается влияние влажности воздуха и скорости ветра на теплоощущения человека.
Tes - Эффективная температура на солнце - температура, которую ощущает человек, с поправкой на солнечный нагрев. Характеристика знойности погоды. Зависит от высоты солнца над горизонтом, облачности и скорости ветра. Ночью, в пасмурную погоду, а также при ветре 12 м/с и более поправка равна нулю.
P - Атмосферное давление - приведенное к уровню моря атмосферное давление.
Po - Атмосферное давление - измеренное на уровне метеостанции атмосферное давление.
Tmin - Минимальная температура - минимум температуры воздуха на высоте 2 м над землей.
Tmax - Максимальная температура - максимум температуры воздуха на высоте 2 м над землей.
R - Количество осадков - Количество выпавших осадков за период времени, мм. При наведении курсора мыши на число - период времени, за который выпало указанное количество осадков.
R24 - Количество осадков - Количество выпавших осадков за 24 часа, мм.
S - Снежный покров - Высота снежного покрова, см. При наведении курсора мыши на число - состояние снежного покрова и степень покрытия местности в баллах.